| time (UTC) | temp F | wind direction | speed MPH | gust MPH | rain 1hr in | rain 24hr in | rain mn in | humidity % | barometer mb |
| 20260507105343 | 41 | 162 | 0.0 | 1.0 | 0.00 | 0.79 | 0.00 | 99 | 1007.8 |
| 20260507104814 | 41 | 162 | 0.0 | 1.0 | 0.00 | 0.79 | 0.00 | 99 | 1007.7 |
| 20260507104307 | 41 | 162 | 0.0 | 1.0 | 0.00 | 0.79 | 0.00 | 99 | 1007.6 |
| 20260507103824 | 41 | 162 | 0.0 | 1.0 | 0.00 | 0.79 | 0.00 | 99 | 1007.6 |
| 20260507103318 | 41 | 162 | 0.0 | 1.0 | 0.00 | 0.79 | 0.00 | 99 | 1007.4 |
| 20260507102810 | 41 | 162 | 0.0 | 1.0 | 0.00 | 0.79 | 0.00 | 99 | 1007.4 |
| 20260507102344 | 41 | 162 | 0.0 | 1.0 | 0.00 | 0.79 | 0.00 | 99 | 1007.5 |
| 20260507101814 | 40 | 162 | 0.0 | 1.0 | 0.00 | 0.79 | 0.00 | 99 | 1007.5 |
| 20260507101307 | 40 | 162 | 0.0 | 1.0 | 0.00 | 0.79 | 0.00 | 99 | 1007.6 |
| 20260507100820 | 40 | 162 | 0.0 | 1.0 | 0.00 | 0.79 | 0.00 | 99 | 1007.5 |
| 20260507100312 | 40 | 162 | 0.0 | 1.0 | 0.00 | 0.79 | 0.00 | 99 | 1007.5 |
| 20260507095825 | 40 | 162 | 0.0 | 2.0 | 0.00 | 0.84 | 0.00 | 99 | 1007.6 |
| 20260507095317 | 40 | 162 | 1.0 | 2.0 | 0.00 | 0.84 | 0.00 | 99 | 1007.6 |
| 20260507094817 | 40 | 141 | 1.0 | 2.0 | 0.00 | 0.84 | 0.00 | 99 | 1007.5 |
| 20260507094310 | 40 | 60 | 0.0 | 2.0 | 0.00 | 0.84 | 0.00 | 99 | 1007.6 |
| 20260507093822 | 40 | 60 | 0.0 | 2.0 | 0.00 | 0.84 | 0.00 | 99 | 1007.6 |
| 20260507093315 | 40 | 99 | 1.0 | 2.0 | 0.00 | 0.84 | 0.00 | 99 | 1007.3 |
| 20260507092808 | 40 | 95 | 1.0 | 2.0 | 0.00 | 0.84 | 0.00 | 99 | 1007.3 |
| 20260507092320 | 40 | 95 | 2.0 | 2.0 | 0.00 | 0.84 | 0.00 | 98 | 1007.4 |
| 20260507091813 | 40 | 82 | 0.0 | 2.0 | 0.00 | 0.84 | 0.00 | 98 | 1007.5 |
| 20260507091345 | 40 | 82 | 0.0 | 2.0 | 0.00 | 0.84 | 0.00 | 98 | 1007.7 |
| 20260507090816 | 40 | 82 | 1.0 | 2.0 | 0.00 | 0.84 | 0.00 | 98 | 1007.5 |
| 20260507090313 | 40 | 70 | 1.0 | 2.0 | 0.00 | 0.84 | 0.00 | 98 | 1007.6 |
| 20260507085826 | 40 | 70 | 0.0 | 1.0 | 0.00 | 0.88 | 0.00 | 98 | 1007.6 |
| 20260507085319 | 40 | 70 | 0.0 | 2.0 | 0.00 | 0.88 | 0.00 | 98 | 1007.5 |
| 20260507084832 | 40 | 70 | 0.0 | 2.0 | 0.00 | 0.88 | 0.00 | 98 | 1007.5 |
| 20260507084345 | 40 | 321 | 1.0 | 2.0 | 0.00 | 0.88 | 0.00 | 98 | 1007.5 |
| 20260507083816 | 40 | 321 | 1.0 | 2.0 | 0.00 | 0.88 | 0.00 | 98 | 1007.5 |
| 20260507083308 | 40 | 321 | 0.0 | 1.0 | 0.00 | 0.88 | 0.00 | 99 | 1007.6 |
| 20260507082819 | 40 | 321 | 0.0 | 0.0 | 0.00 | 0.88 | 0.00 | 98 | 1007.8 |
| 20260507082312 | 40 | 321 | 0.0 | 1.0 | 0.00 | 0.88 | 0.00 | 99 | 1007.9 |
| 20260507081806 | 40 | 321 | 0.0 | 1.0 | 0.00 | 0.88 | 0.00 | 99 | 1007.9 |
| 20260507081319 | 40 | 321 | 0.0 | 1.0 | 0.00 | 0.88 | 0.00 | 99 | 1007.8 |
| 20260507080811 | 40 | 321 | 1.0 | 1.0 | 0.00 | 0.88 | 0.00 | 99 | 1007.8 |
| 20260507080344 | 40 | 321 | 0.0 | 1.0 | 0.00 | 0.88 | 0.00 | 99 | 1007.8 |
| 20260507075816 | 40 | 321 | 0.0 | 1.0 | 0.00 | 0.92 | 0.00 | 98 | 1007.9 |
| 20260507075308 | 40 | 321 | 0.0 | 1.0 | 0.00 | 0.92 | 0.00 | 98 | 1007.7 |
| 20260507074842 | 40 | 321 | 0.0 | 2.0 | 0.00 | 0.92 | 0.00 | 98 | 1007.9 |
| 20260507074333 | 39 | 321 | 1.0 | 2.0 | 0.00 | 0.92 | 0.00 | 98 | 1007.8 |
| 20260507073844 | 39 | 321 | 0.0 | 1.0 | 0.00 | 0.92 | 0.00 | 98 | 1008.0 |
| 20260507073312 | 39 | 321 | 0.0 | 1.0 | 0.00 | 0.92 | 0.00 | 98 | 1008.1 |
| 20260507072824 | 39 | 321 | 1.0 | 2.0 | 0.00 | 0.92 | 0.00 | 98 | 1008.1 |
| 20260507072318 | 39 | 321 | 1.0 | 3.0 | 0.00 | 0.92 | 0.00 | 98 | 1007.9 |
| 20260507071811 | 39 | 100 | 2.0 | 3.0 | 0.00 | 0.92 | 0.00 | 98 | 1007.8 |
| 20260507071305 | 39 | 331 | 2.0 | 2.0 | 0.00 | 0.92 | 0.00 | 98 | 1007.6 |
| 20260507070807 | 40 | 324 | 1.0 | 2.0 | 0.00 | 0.92 | 0.00 | 98 | 1007.6 |
| 20260507070320 | 40 | 337 | 0.0 | 2.0 | 0.00 | 0.92 | 0.00 | 98 | 1007.7 |
| 20260507065813 | 40 | 54 | 1.0 | 2.0 | 0.00 | 0.93 | 0.00 | 98 | 1007.5 |
| 20260507065334 | 40 | 54 | 0.0 | 1.0 | 0.00 | 0.93 | 0.00 | 98 | 1007.5 |
| 20260507064805 | 40 | 54 | 0.0 | 1.0 | 0.00 | 0.93 | 0.00 | 98 | 1007.4 |
| 20260507064317 | 40 | 54 | 1.0 | 1.0 | 0.00 | 0.93 | 0.00 | 98 | 1007.5 |
| 20260507063829 | 40 | 54 | 0.0 | 1.0 | 0.00 | 0.93 | 0.00 | 98 | 1007.5 |
| 20260507063321 | 40 | 54 | 0.0 | 1.0 | 0.00 | 0.93 | 0.00 | 98 | 1007.4 |
| 20260507062813 | 40 | 54 | 0.0 | 1.0 | 0.00 | 0.93 | 0.00 | 98 | 1007.5 |
| 20260507062307 | 40 | 54 | 0.0 | 1.0 | 0.00 | 0.93 | 0.00 | 98 | 1007.5 |
| 20260507061820 | 40 | 54 | 1.0 | 1.0 | 0.00 | 0.93 | 0.00 | 98 | 1007.6 |
| 20260507061312 | 40 | 54 | 0.0 | 1.0 | 0.00 | 0.93 | 0.00 | 98 | 1007.6 |
| 20260507060825 | 40 | 54 | 0.0 | 1.0 | 0.00 | 0.93 | 0.00 | 98 | 1007.6 |
| 20260507060308 | 40 | 54 | 0.0 | 2.0 | 0.00 | 0.93 | 0.00 | 98 | 1007.9 |
| 20260507055842 | 40 | 54 | 0.0 | 2.0 | 0.00 | 0.98 | 0.00 | 98 | 1007.9 |
| 20260507055313 | 40 | 54 | 1.0 | 2.0 | 0.00 | 0.98 | 0.00 | 98 | 1008.0 |
| 20260507054807 | 40 | 54 | 1.0 | 2.0 | 0.00 | 0.98 | 0.00 | 98 | 1007.9 |
| 20260507054320 | 40 | 315 | 0.0 | 2.0 | 0.00 | 0.98 | 0.00 | 98 | 1007.9 |
| 20260507053814 | 40 | 315 | 1.0 | 2.0 | 0.00 | 0.98 | 0.00 | 98 | 1007.9 |
| 20260507053310 | 40 | 315 | 2.0 | 2.0 | 0.00 | 0.98 | 0.00 | 98 | 1007.9 |
| 20260507052824 | 40 | 315 | 1.0 | 2.0 | 0.00 | 0.98 | 0.00 | 98 | 1008.0 |
| 20260507052318 | 40 | 315 | 1.0 | 2.0 | 0.00 | 0.98 | 0.00 | 97 | 1008.0 |
| 20260507051833 | 40 | 315 | 0.0 | 2.0 | 0.00 | 0.98 | 0.00 | 97 | 1008.0 |
| 20260507051325 | 40 | 315 | 0.0 | 2.0 | 0.00 | 0.98 | 0.00 | 97 | 1008.1 |
| 20260507050817 | 40 | 315 | 0.0 | 1.0 | 0.00 | 0.98 | 0.00 | 98 | 1008.2 |
| 20260507050308 | 41 | 315 | 0.0 | 2.0 | 0.00 | 0.98 | 0.00 | 98 | 1008.2 |
| 20260507045820 | 41 | 315 | 0.0 | 2.0 | 0.00 | 1.04 | 0.00 | 97 | 1008.4 |
| 20260507045311 | 41 | 315 | 1.0 | 2.0 | 0.00 | 1.04 | 0.00 | 98 | 1008.5 |
| 20260507044824 | 41 | 315 | 0.0 | 2.0 | 0.00 | 1.04 | 0.00 | 98 | 1008.6 |
| 20260507044316 | 41 | 315 | 0.0 | 2.0 | 0.00 | 1.04 | 0.00 | 98 | 1008.6 |
| 20260507043809 | 41 | 315 | 1.0 | 2.0 | 0.00 | 1.04 | 0.00 | 98 | 1008.5 |
| 20260507043322 | 41 | 315 | 0.0 | 2.0 | 0.00 | 1.04 | 0.00 | 98 | 1008.6 |
| 20260507042814 | 41 | 315 | 1.0 | 2.0 | 0.00 | 1.04 | 0.00 | 98 | 1008.4 |
| 20260507042307 | 41 | 315 | 0.0 | 1.0 | 0.00 | 1.04 | 0.00 | 98 | 1008.6 |
| 20260507041818 | 41 | 315 | 0.0 | 2.0 | 0.00 | 1.04 | 0.00 | 98 | 1008.5 |
| 20260507041311 | 41 | 315 | 1.0 | 2.0 | 0.00 | 1.04 | 0.00 | 98 | 1008.5 |
| 20260507040824 | 41 | 315 | 0.0 | 1.0 | 0.00 | 1.04 | 0.00 | 98 | 1008.6 |
| 20260507040316 | 41 | 315 | 0.0 | 0.0 | 0.00 | 1.04 | 0.00 | 97 | 1008.5 |
| 20260507035808 | 41 | 315 | 0.0 | 0.0 | 0.00 | 1.15 | 1.04 | 97 | 1008.5 |
| 20260507035321 | 41 | 315 | 0.0 | 1.0 | 0.00 | 1.15 | 1.04 | 97 | 1008.5 |
| 20260507034814 | 41 | 315 | 0.0 | 1.0 | 0.00 | 1.15 | 1.04 | 97 | 1008.5 |
| 20260507034310 | 41 | 315 | 0.0 | 1.0 | 0.00 | 1.15 | 1.04 | 97 | 1008.4 |
| 20260507033825 | 42 | 315 | 0.0 | 1.0 | 0.00 | 1.15 | 1.04 | 97 | 1008.4 |
| 20260507033318 | 42 | 315 | 1.0 | 1.0 | 0.00 | 1.15 | 1.04 | 97 | 1008.6 |
| 20260507032830 | 42 | 315 | 0.0 | 1.0 | 0.00 | 1.15 | 1.04 | 97 | 1008.6 |
| 20260507032321 | 42 | 315 | 0.0 | 1.0 | 0.00 | 1.15 | 1.04 | 97 | 1008.6 |
| 20260507031813 | 42 | 315 | 0.0 | 1.0 | 0.00 | 1.15 | 1.04 | 97 | 1008.7 |
| 20260507031306 | 42 | 315 | 0.0 | 1.0 | 0.00 | 1.15 | 1.04 | 97 | 1008.6 |
| 20260507030818 | 42 | 315 | 0.0 | 1.0 | 0.00 | 1.15 | 1.04 | 98 | 1008.8 |
| 20260507030332 | 42 | 315 | 0.0 | 1.0 | 0.00 | 1.15 | 1.04 | 98 | 1008.8 |
| 20260507025823 | 43 | 315 | 0.0 | 0.0 | 0.00 | 1.15 | 1.04 | 97 | 1008.7 |
| 20260507025315 | 43 | 315 | 0.0 | 0.0 | 0.00 | 1.15 | 1.04 | 97 | 1008.7 |
| 20260507024809 | 43 | 315 | 0.0 | 0.0 | 0.00 | 1.15 | 1.04 | 97 | 1008.8 |
| 20260507024341 | 43 | 315 | 0.0 | 0.0 | 0.00 | 1.15 | 1.04 | 97 | 1008.7 |
| 20260507023812 | 43 | 315 | 0.0 | 0.0 | 0.00 | 1.15 | 1.04 | 98 | 1008.7 |
| 20260507023307 | 43 | 315 | 0.0 | 1.0 | 0.00 | 1.15 | 1.04 | 97 | 1008.6 |
| 20260507022819 | 43 | 315 | 0.0 | 1.0 | 0.00 | 1.15 | 1.04 | 98 | 1008.7 |
| 20260507022310 | 43 | 315 | 0.0 | 1.0 | 0.00 | 1.15 | 1.04 | 98 | 1008.7 |
| 20260507021809 | 43 | 315 | 0.0 | 2.0 | 0.00 | 1.15 | 1.04 | 98 | 1008.6 |
| 20260507021321 | 43 | 315 | 1.0 | 2.0 | 0.01 | 1.15 | 1.04 | 98 | 1008.6 |
| 20260507020812 | 43 | 315 | 1.0 | 2.0 | 0.01 | 1.15 | 1.04 | 97 | 1008.3 |
| 20260507020345 | 43 | 315 | 0.0 | 0.0 | 0.01 | 1.15 | 1.04 | 98 | 1008.5 |
| 20260507015816 | 43 | 315 | 0.0 | 1.0 | 0.01 | 1.16 | 1.04 | 97 | 1008.7 |
| 20260507015327 | 43 | 315 | 0.0 | 1.0 | 0.01 | 1.16 | 1.04 | 98 | 1008.7 |
| 20260507014817 | 43 | 315 | 0.0 | 2.0 | 0.01 | 1.16 | 1.04 | 97 | 1008.9 |
| 20260507014310 | 43 | 315 | 1.0 | 2.0 | 0.02 | 1.16 | 1.04 | 98 | 1008.9 |
| 20260507013824 | 43 | 315 | 0.0 | 1.0 | 0.02 | 1.16 | 1.04 | 98 | 1008.7 |
| 20260507013317 | 43 | 315 | 0.0 | 2.0 | 0.02 | 1.16 | 1.04 | 98 | 1008.8 |
| 20260507012808 | 43 | 315 | 0.0 | 2.0 | 0.03 | 1.16 | 1.04 | 98 | 1008.8 |
| 20260507012320 | 43 | 315 | 1.0 | 2.0 | 0.03 | 1.16 | 1.04 | 98 | 1008.9 |
| 20260507011813 | 43 | 315 | 0.0 | 2.0 | 0.03 | 1.16 | 1.04 | 98 | 1008.8 |
| 20260507011306 | 43 | 315 | 1.0 | 2.0 | 0.03 | 1.15 | 1.03 | 98 | 1008.9 |
| 20260507010839 | 43 | 315 | 1.0 | 2.0 | 0.04 | 1.15 | 1.03 | 98 | 1008.9 |
| 20260507010312 | 43 | 315 | 1.0 | 2.0 | 0.04 | 1.15 | 1.03 | 97 | 1008.7 |
| 20260507005813 | 43 | 315 | 0.0 | 1.0 | 0.04 | 1.16 | 1.03 | 97 | 1008.6 |
| 20260507005306 | 43 | 315 | 1.0 | 1.0 | 0.04 | 1.16 | 1.03 | 97 | 1008.6 |
| 20260507004819 | 43 | 315 | 1.0 | 2.0 | 0.04 | 1.16 | 1.03 | 97 | 1008.6 |
| 20260507004316 | 43 | 315 | 1.0 | 1.0 | 0.04 | 1.15 | 1.02 | 97 | 1008.5 |
| 20260507003809 | 43 | 315 | 0.0 | 2.0 | 0.04 | 1.15 | 1.02 | 97 | 1008.5 |
| 20260507003321 | 43 | 315 | 1.0 | 3.0 | 0.04 | 1.15 | 1.02 | 97 | 1008.5 |
| 20260507002813 | 43 | 325 | 2.0 | 3.0 | 0.03 | 1.14 | 1.01 | 97 | 1008.4 |
| 20260507002325 | 43 | 330 | 2.0 | 3.0 | 0.03 | 1.14 | 1.01 | 97 | 1008.2 |
| 20260507001817 | 43 | 282 | 1.0 | 2.0 | 0.03 | 1.14 | 1.01 | 97 | 1008.2 |
| 20260507001306 | 43 | 276 | 1.0 | 3.0 | 0.02 | 1.13 | 1.00 | 97 | 1008.0 |
| 20260507000819 | 43 | 276 | 1.0 | 3.0 | 0.01 | 1.12 | 0.99 | 97 | 1008.0 |
| 20260507000314 | 43 | 318 | 1.0 | 2.0 | 0.01 | 1.12 | 0.99 | 97 | 1007.9 |
| 20260506235806 | 43 | 318 | 1.0 | 3.0 | 0.01 | 1.12 | 0.99 | 97 | 1007.8 |
| 20260506235320 | 43 | 318 | 1.0 | 3.0 | 0.01 | 1.12 | 0.99 | 97 | 1007.5 |
| 20260506234813 | 43 | 339 | 1.0 | 2.0 | 0.01 | 1.12 | 0.99 | 97 | 1007.4 |
| 20260506234326 | 43 | 339 | 1.0 | 2.0 | 0.00 | 1.11 | 0.98 | 97 | 1007.3 |
| 20260506233839 | 43 | 339 | 0.0 | 1.0 | 0.00 | 1.11 | 0.98 | 97 | 1007.4 |
| 20260506233312 | 43 | 339 | 0.0 | 1.0 | 0.00 | 1.11 | 0.98 | 97 | 1007.3 |
| 20260506232825 | 43 | 339 | 0.0 | 1.0 | 0.00 | 1.11 | 0.98 | 97 | 1007.3 |
| 20260506232319 | 43 | 339 | 0.0 | 2.0 | 0.00 | 1.11 | 0.98 | 97 | 1007.2 |
| 20260506231811 | 43 | 339 | 1.0 | 2.0 | 0.00 | 1.11 | 0.98 | 97 | 1007.2 |
| 20260506231345 | 43 | 339 | 1.0 | 2.0 | 0.00 | 1.11 | 0.98 | 97 | 1007.1 |
| 20260506230818 | 43 | 339 | 0.0 | 2.0 | 0.00 | 1.11 | 0.98 | 97 | 1007.0 |
| 20260506230330 | 43 | 339 | 0.0 | 2.0 | 0.00 | 1.11 | 0.98 | 96 | 1007.1 |
| 20260506225822 | 43 | 325 | 0.0 | 2.0 | 0.00 | 1.11 | 0.98 | 97 | 1007.2 |
| 20260506225314 | 43 | 325 | 0.0 | 4.0 | 0.00 | 1.11 | 0.98 | 97 | 1007.2 |
| 20260506224825 | 43 | 320 | 2.0 | 5.0 | 0.00 | 1.11 | 0.98 | 97 | 1007.5 |
| 20260506224317 | 43 | 316 | 1.0 | 5.0 | 0.00 | 1.11 | 0.98 | 96 | 1007.5 |
| 20260506223806 | 43 | 312 | 2.0 | 4.0 | 0.00 | 1.11 | 0.98 | 96 | 1007.4 |
| 20260506223319 | 43 | 316 | 2.0 | 5.0 | 0.01 | 1.11 | 0.98 | 96 | 1007.2 |
| 20260506222832 | 43 | 39 | 1.0 | 5.0 | 0.01 | 1.11 | 0.98 | 96 | 1007.2 |
| 20260506222312 | 44 | 319 | 1.0 | 3.0 | 0.01 | 1.11 | 0.98 | 97 | 1007.2 |
| 20260506221825 | 44 | 316 | 1.0 | 4.0 | 0.01 | 1.11 | 0.98 | 97 | 1007.2 |
| 20260506221336 | 44 | 316 | 2.0 | 5.0 | 0.01 | 1.11 | 0.98 | 96 | 1007.3 |
| 20260506220807 | 44 | 303 | 2.0 | 4.0 | 0.01 | 1.11 | 0.98 | 96 | 1007.3 |
| 20260506220319 | 44 | 315 | 2.0 | 4.0 | 0.01 | 1.11 | 0.98 | 96 | 1007.2 |
| 20260506215820 | 44 | 66 | 1.0 | 4.0 | 0.01 | 1.11 | 0.98 | 96 | 1007.1 |
| 20260506215312 | 44 | 326 | 3.0 | 4.0 | 0.02 | 1.11 | 0.98 | 97 | 1007.1 |
| 20260506214809 | 44 | 318 | 1.0 | 3.0 | 0.03 | 1.11 | 0.98 | 97 | 1007.2 |
| 20260506214339 | 44 | 314 | 2.0 | 3.0 | 0.03 | 1.11 | 0.98 | 96 | 1007.1 |
| 20260506213815 | 44 | 328 | 2.0 | 4.0 | 0.04 | 1.11 | 0.98 | 96 | 1007.1 |
| 20260506213307 | 45 | 320 | 2.0 | 4.0 | 0.03 | 1.10 | 0.97 | 97 | 1007.1 |
| 20260506212822 | 45 | 316 | 1.0 | 3.0 | 0.04 | 1.10 | 0.97 | 97 | 1006.9 |
| 20260506212334 | 45 | 335 | 2.0 | 4.0 | 0.04 | 1.10 | 0.97 | 97 | 1006.9 |
| 20260506211824 | 45 | 316 | 2.0 | 4.0 | 0.05 | 1.10 | 0.97 | 97 | 1006.9 |
| 20260506211318 | 45 | 322 | 2.0 | 3.0 | 0.06 | 1.10 | 0.97 | 97 | 1006.7 |
| 20260506210830 | 45 | 328 | 1.0 | 3.0 | 0.06 | 1.10 | 0.97 | 97 | 1006.7 |
| 20260506210322 | 44 | 309 | 2.0 | 6.0 | 0.07 | 1.10 | 0.97 | 97 | 1006.9 |
| 20260506205816 | 44 | 315 | 2.0 | 5.0 | 0.07 | 1.20 | 0.97 | 97 | 1006.9 |
| 20260506205309 | 44 | 337 | 3.0 | 4.0 | 0.06 | 1.19 | 0.96 | 97 | 1007.3 |
| 20260506204820 | 44 | 323 | 1.0 | 4.0 | 0.05 | 1.18 | 0.95 | 97 | 1007.2 |
| 20260506204321 | 44 | 325 | 2.0 | 4.0 | 0.05 | 1.18 | 0.95 | 96 | 1007.1 |
| 20260506203813 | 44 | 321 | 2.0 | 3.0 | 0.04 | 1.17 | 0.94 | 96 | 1007.1 |
| 20260506203325 | 44 | 3 | 1.0 | 3.0 | 0.04 | 1.17 | 0.94 | 97 | 1007.0 |
| 20260506202817 | 44 | 312 | 1.0 | 3.0 | 0.04 | 1.16 | 0.93 | 97 | 1007.2 |
| 20260506202309 | 44 | 320 | 2.0 | 3.0 | 0.04 | 1.16 | 0.93 | 96 | 1007.1 |
| 20260506201822 | 44 | 329 | 2.0 | 3.0 | 0.03 | 1.15 | 0.92 | 96 | 1006.9 |
| 20260506201336 | 44 | 339 | 0.0 | 4.0 | 0.02 | 1.14 | 0.91 | 96 | 1006.9 |
| 20260506200827 | 44 | 14 | 1.0 | 4.0 | 0.02 | 1.14 | 0.91 | 96 | 1007.0 |
| 20260506200321 | 44 | 326 | 0.0 | 3.0 | 0.02 | 1.13 | 0.90 | 96 | 1006.9 |
| 20260506195812 | 44 | 326 | 1.0 | 3.0 | 0.02 | 1.23 | 0.90 | 96 | 1006.8 |
| 20260506195346 | 44 | 325 | 2.0 | 3.0 | 0.02 | 1.23 | 0.90 | 96 | 1006.7 |
| 20260506194817 | 44 | 332 | 2.0 | 3.0 | 0.02 | 1.23 | 0.90 | 97 | 1006.7 |
| 20260506194329 | 44 | 327 | 1.0 | 3.0 | 0.03 | 1.23 | 0.90 | 96 | 1006.7 |
| 20260506193807 | 44 | 331 | 2.0 | 2.0 | 0.03 | 1.23 | 0.90 | 96 | 1006.6 |
| 20260506193320 | 44 | 350 | 1.0 | 3.0 | 0.03 | 1.23 | 0.90 | 96 | 1006.7 |
| 20260506192812 | 44 | 85 | 1.0 | 3.0 | 0.03 | 1.22 | 0.89 | 96 | 1006.5 |
| 20260506192345 | 44 | 291 | 1.0 | 5.0 | 0.03 | 1.22 | 0.89 | 96 | 1006.6 |
| 20260506191816 | 44 | 55 | 3.0 | 6.0 | 0.03 | 1.22 | 0.89 | 96 | 1006.4 |
| 20260506191311 | 44 | 83 | 3.0 | 5.0 | 0.03 | 1.22 | 0.89 | 96 | 1006.5 |
| 20260506190825 | 44 | 77 | 3.0 | 5.0 | 0.02 | 1.21 | 0.88 | 96 | 1006.5 |
| 20260506190325 | 44 | 330 | 0.0 | 3.0 | 0.02 | 1.21 | 0.88 | 97 | 1006.6 |
| 20260506185827 | 44 | 330 | 0.0 | 3.0 | 0.03 | 1.23 | 0.88 | 97 | 1006.8 |
| 20260506185320 | 44 | 323 | 1.0 | 3.0 | 0.03 | 1.23 | 0.88 | 97 | 1006.9 |
| 20260506184832 | 44 | 27 | 1.0 | 3.0 | 0.04 | 1.23 | 0.88 | 97 | 1007.0 |
| 20260506184343 | 44 | 326 | 1.0 | 3.0 | 0.04 | 1.22 | 0.87 | 97 | 1007.2 |
| 20260506183818 | 44 | 329 | 1.0 | 3.0 | 0.05 | 1.22 | 0.87 | 97 | 1007.0 |
| 20260506183309 | 44 | 328 | 1.0 | 3.0 | 0.05 | 1.22 | 0.87 | 97 | 1007.1 |
| 20260506182809 | 44 | 334 | 1.0 | 5.0 | 0.05 | 1.21 | 0.86 | 97 | 1007.2 |
| 20260506182322 | 44 | 320 | 1.0 | 5.0 | 0.06 | 1.21 | 0.86 | 97 | 1007.2 |
| 20260506181813 | 44 | 324 | 0.0 | 3.0 | 0.07 | 1.21 | 0.86 | 97 | 1007.2 |
| 20260506181306 | 44 | 324 | 1.0 | 3.0 | 0.07 | 1.21 | 0.86 | 97 | 1007.5 |
| 20260506180818 | 44 | 320 | 1.0 | 3.0 | 0.08 | 1.21 | 0.86 | 97 | 1007.5 |
| 20260506180310 | 44 | 320 | 1.0 | 3.0 | 0.07 | 1.20 | 0.85 | 97 | 1007.5 |
| 20260506175844 | 44 | 325 | 1.0 | 3.0 | 0.07 | 1.20 | 0.85 | 97 | 1007.4 |
| 20260506175336 | 44 | 313 | 0.0 | 2.0 | 0.08 | 1.20 | 0.85 | 97 | 1007.6 |
| 20260506174810 | 43 | 313 | 1.0 | 2.0 | 0.08 | 1.19 | 0.84 | 97 | 1007.7 |
| 20260506174321 | 43 | 313 | 0.0 | 2.0 | 0.07 | 1.18 | 0.83 | 97 | 1007.6 |
| 20260506173814 | 43 | 313 | 0.0 | 2.0 | 0.07 | 1.17 | 0.82 | 97 | 1007.6 |
| 20260506173307 | 43 | 313 | 0.0 | 2.0 | 0.08 | 1.17 | 0.82 | 96 | 1007.7 |
| 20260506172821 | 43 | 313 | 0.0 | 3.0 | 0.09 | 1.16 | 0.81 | 96 | 1007.6 |
| 20260506172318 | 43 | 313 | 2.0 | 3.0 | 0.09 | 1.15 | 0.80 | 96 | 1007.8 |
| 20260506171811 | 43 | 313 | 2.0 | 2.0 | 0.09 | 1.14 | 0.79 | 96 | 1007.8 |
| 20260506171324 | 43 | 329 | 1.0 | 2.0 | 0.10 | 1.14 | 0.79 | 97 | 1007.7 |
| 20260506170816 | 43 | 329 | 0.0 | 1.0 | 0.10 | 1.13 | 0.78 | 97 | 1007.7 |
| 20260506170328 | 43 | 329 | 0.0 | 3.0 | 0.11 | 1.13 | 0.78 | 97 | 1007.7 |
| 20260506165819 | 44 | 324 | 2.0 | 3.0 | 0.11 | 1.12 | 0.77 | 97 | 1007.8 |
| 20260506165337 | 44 | 307 | 1.0 | 2.0 | 0.12 | 1.12 | 0.77 | 97 | 1007.9 |
| 20260506164808 | 43 | 247 | 0.0 | 1.0 | 0.13 | 1.11 | 0.76 | 97 | 1007.8 |
| 20260506164320 | 43 | 247 | 0.0 | 1.0 | 0.14 | 1.11 | 0.76 | 97 | 1007.9 |
| 20260506163813 | 43 | 247 | 0.0 | 2.0 | 0.14 | 1.10 | 0.75 | 97 | 1008.0 |
| 20260506163311 | 43 | 247 | 0.0 | 2.0 | 0.13 | 1.09 | 0.74 | 97 | 1008.1 |
| 20260506162843 | 43 | 247 | 0.0 | 2.0 | 0.12 | 1.07 | 0.72 | 96 | 1008.0 |
| 20260506162314 | 43 | 247 | 1.0 | 2.0 | 0.12 | 1.06 | 0.71 | 96 | 1008.1 |
| 20260506161825 | 43 | 247 | 2.0 | 4.0 | 0.12 | 1.05 | 0.70 | 96 | 1008.1 |
| 20260506161336 | 43 | 245 | 2.0 | 4.0 | 0.12 | 1.04 | 0.69 | 96 | 1008.4 |
| 20260506160808 | 43 | 289 | 1.0 | 3.0 | 0.12 | 1.03 | 0.68 | 96 | 1008.4 |
| 20260506160321 | 43 | 315 | 0.0 | 3.0 | 0.12 | 1.02 | 0.67 | 96 | 1008.3 |
| 20260506155823 | 43 | 315 | 2.0 | 5.0 | 0.12 | 1.01 | 0.66 | 96 | 1008.4 |
| 20260506155316 | 43 | 329 | 2.0 | 5.0 | 0.12 | 1.00 | 0.65 | 96 | 1008.5 |
| 20260506154810 | 43 | 351 | 2.0 | 4.0 | 0.10 | 0.98 | 0.63 | 96 | 1008.5 |
| 20260506154322 | 43 | 322 | 2.0 | 7.0 | 0.10 | 0.97 | 0.62 | 96 | 1008.4 |
| 20260506153823 | 43 | 350 | 2.0 | 7.0 | 0.10 | 0.96 | 0.61 | 96 | 1008.4 |
| 20260506153325 | 43 | 315 | 2.0 | 5.0 | 0.10 | 0.96 | 0.61 | 96 | 1008.5 |
| 20260506152817 | 44 | 344 | 3.0 | 5.0 | 0.10 | 0.95 | 0.60 | 96 | 1008.3 |
| 20260506152311 | 44 | 319 | 2.0 | 3.0 | 0.09 | 0.93 | 0.58 | 96 | 1008.2 |
| 20260506151825 | 44 | 332 | 1.0 | 3.0 | 0.09 | 0.93 | 0.58 | 96 | 1008.2 |
| 20260506151316 | 44 | 317 | 1.0 | 3.0 | 0.09 | 0.92 | 0.57 | 96 | 1008.2 |
| 20260506150810 | 44 | 76 | 1.0 | 3.0 | 0.09 | 0.91 | 0.56 | 95 | 1007.9 |
| 20260506150343 | 44 | 71 | 0.0 | 2.0 | 0.08 | 0.90 | 0.55 | 96 | 1007.9 |
| 20260506145834 | 44 | 333 | 0.0 | 2.0 | 0.08 | 0.89 | 0.54 | 96 | 1008.0 |
| 20260506145307 | 44 | 12 | 1.0 | 3.0 | 0.07 | 0.88 | 0.53 | 95 | 1008.0 |
| 20260506144820 | 44 | 95 | 0.0 | 4.0 | 0.08 | 0.88 | 0.53 | 95 | 1008.0 |
| 20260506144314 | 44 | 70 | 2.0 | 5.0 | 0.07 | 0.87 | 0.52 | 95 | 1008.0 |
| 20260506143808 | 44 | 61 | 3.0 | 5.0 | 0.06 | 0.86 | 0.51 | 96 | 1008.1 |
| 20260506143320 | 44 | 68 | 1.0 | 2.0 | 0.05 | 0.85 | 0.50 | 96 | 1008.2 |
| 20260506142814 | 44 | 275 | 0.0 | 1.0 | 0.05 | 0.85 | 0.50 | 96 | 1008.2 |
| 20260506142307 | 44 | 275 | 0.0 | 2.0 | 0.04 | 0.84 | 0.49 | 96 | 1008.5 |
| 20260506141818 | 44 | 273 | 1.0 | 2.0 | 0.04 | 0.84 | 0.49 | 96 | 1008.5 |
| 20260506141310 | 44 | 273 | 0.0 | 2.0 | 0.04 | 0.83 | 0.48 | 96 | 1008.2 |
| 20260506140823 | 44 | 273 | 0.0 | 2.0 | 0.03 | 0.82 | 0.47 | 96 | 1008.2 |
| 20260506140316 | 44 | 335 | 0.0 | 2.0 | 0.02 | 0.81 | 0.46 | 95 | 1008.3 |
| 20260506135809 | 44 | 15 | 0.0 | 7.0 | 0.02 | 0.81 | 0.46 | 95 | 1008.2 |
| 20260506135321 | 44 | 29 | 2.0 | 7.0 | 0.02 | 0.81 | 0.46 | 95 | 1008.0 |
| 20260506134817 | 44 | 67 | 3.0 | 5.0 | 0.03 | 0.80 | 0.45 | 95 | 1008.0 |
| 20260506134308 | 44 | 91 | 2.0 | 4.0 | 0.04 | 0.80 | 0.45 | 95 | 1008.0 |
| 20260506133822 | 45 | 313 | 1.0 | 3.0 | 0.04 | 0.80 | 0.45 | 95 | 1008.2 |
| 20260506133315 | 45 | 313 | 1.0 | 3.0 | 0.05 | 0.80 | 0.45 | 96 | 1008.2 |
| 20260506132808 | 45 | 349 | 1.0 | 2.0 | 0.06 | 0.80 | 0.45 | 96 | 1008.3 |
| 20260506132320 | 45 | 349 | 1.0 | 2.0 | 0.07 | 0.80 | 0.45 | 96 | 1008.3 |
| 20260506131814 | 45 | 349 | 0.0 | 3.0 | 0.07 | 0.80 | 0.45 | 96 | 1008.5 |
| 20260506131306 | 45 | 349 | 0.0 | 3.0 | 0.07 | 0.79 | 0.44 | 96 | 1008.7 |
| 20260506130820 | 45 | 286 | 0.0 | 2.0 | 0.08 | 0.79 | 0.44 | 96 | 1008.7 |
| 20260506130322 | 45 | 286 | 0.0 | 2.0 | 0.08 | 0.79 | 0.44 | 96 | 1008.8 |
| 20260506125815 | 45 | 286 | 1.0 | 3.0 | 0.09 | 0.79 | 0.44 | 96 | 1008.8 |
| 20260506125344 | 45 | 347 | 1.0 | 5.0 | 0.10 | 0.79 | 0.44 | 96 | 1008.8 |
| 20260506124816 | 45 | 320 | 1.0 | 8.0 | 0.09 | 0.77 | 0.42 | 96 | 1008.9 |
| 20260506124330 | 45 | 116 | 5.0 | 8.0 | 0.08 | 0.76 | 0.41 | 96 | 1008.5 |
| 20260506123821 | 45 | 283 | 4.0 | 7.0 | 0.08 | 0.75 | 0.40 | 96 | 1008.6 |
| 20260506123315 | 45 | 118 | 1.0 | 8.0 | 0.09 | 0.75 | 0.40 | 96 | 1008.7 |
| 20260506122806 | 45 | 122 | 5.0 | 8.0 | 0.09 | 0.74 | 0.39 | 96 | 1008.6 |
| 20260506122318 | 45 | 58 | 0.0 | 3.0 | 0.09 | 0.73 | 0.38 | 96 | 1009.0 |
| 20260506121810 | 45 | 343 | 1.0 | 5.0 | 0.10 | 0.73 | 0.38 | 96 | 1009.3 |
| 20260506121341 | 45 | 316 | 0.0 | 4.0 | 0.09 | 0.72 | 0.37 | 96 | 1009.1 |
| 20260506120813 | 45 | 320 | 1.0 | 4.0 | 0.09 | 0.71 | 0.36 | 96 | 1009.1 |
| 20260506120306 | 45 | 77 | 3.0 | 4.0 | 0.08 | 0.70 | 0.35 | 96 | 1009.2 |
| 20260506115819 | 45 | 93 | 1.0 | 4.0 | 0.08 | 0.70 | 0.35 | 96 | 1009.2 |
| 20260506115340 | 45 | 67 | 2.0 | 4.0 | 0.08 | 0.69 | 0.34 | 96 | 1009.3 |
| 20260506114812 | 45 | 52 | 0.0 | 2.0 | 0.07 | 0.68 | 0.33 | 96 | 1009.2 |
| 20260506114308 | 45 | 335 | 0.0 | 2.0 | 0.06 | 0.67 | 0.32 | 96 | 1009.5 |
| 20260506113817 | 46 | 335 | 0.0 | 2.0 | 0.07 | 0.67 | 0.32 | 96 | 1009.6 |
| 20260506113322 | 46 | 335 | 2.0 | 2.0 | 0.06 | 0.66 | 0.31 | 96 | 1009.5 |
| 20260506112815 | 46 | 335 | 0.0 | 2.0 | 0.05 | 0.65 | 0.30 | 96 | 1009.2 |
| 20260506112308 | 46 | 335 | 1.0 | 4.0 | 0.04 | 0.64 | 0.29 | 96 | 1009.2 |
| 20260506111841 | 46 | 59 | 2.0 | 5.0 | 0.03 | 0.63 | 0.28 | 96 | 1008.9 |
| 20260506111312 | 46 | 59 | 2.0 | 8.0 | 0.03 | 0.63 | 0.28 | 95 | 1008.7 |
| 20260506110824 | 46 | 97 | 4.0 | 9.0 | 0.02 | 0.62 | 0.27 | 96 | 1008.5 |
| 20260506110317 | 47 | 62 | 4.0 | 9.0 | 0.02 | 0.62 | 0.27 | 96 | 1008.5 |
| 20260506105831 | 47 | 121 | 3.0 | 5.0 | 0.02 | 0.62 | 0.27 | 97 | 1008.6 |